CW3439 Weather Reports


time (UTC)temp
C
wind
direction
speed
KPH
gust
KPH
rain 1hr
cm
rain 24hr
cm
rain mn
cm
humidity
%
barometer
mb
20260503224406 11 258 20.9 38.6 0.00 0.00 0.00 72 1011.6
20260503223906 11 262 16.1 37.0 0.00 0.00 0.00 72 1011.6
20260503223405 11 257 22.5 41.8 0.00 0.00 0.00 71 1011.6
20260503222906 11 262 25.7 53.1 0.00 0.00 0.00 70 1011.6
20260503222405 11 260 25.7 45.1 0.00 0.00 0.00 69 1011.8
20260503221906 11 256 22.5 48.3 0.00 0.00 0.00 69 1011.9
20260503221406 11 261 25.7 46.7 0.00 0.00 0.00 70 1011.9
20260503220906 11 279 22.5 45.1 0.00 0.00 0.00 72 1012.0
20260503220406 11 264 19.3 38.6 0.00 0.00 0.00 73 1012.0
20260503215905 11 271 20.9 37.0 0.00 0.00 0.00 72 1012.1
20260503215406 11 261 22.5 48.3 0.00 0.00 0.00 72 1012.1
20260503213906 11 250 25.7 48.3 0.00 0.00 0.00 71 1012.1
20260503213406 11 261 27.4 56.3 0.00 0.00 0.00 71 1011.9
20260503212905 11 260 29.0 61.2 0.00 0.00 0.00 72 1012.0
20260503212406 11 261 27.4 48.3 0.00 0.00 0.00 72 1011.9
20260503211905 11 268 30.6 64.4 0.00 0.00 0.00 71 1011.8
20260503211406 11 255 29.0 48.3 0.00 0.00 0.00 72 1011.9
20260503210906 11 259 33.8 62.8 0.00 0.00 0.00 72 1011.8
20260503210406 11 258 33.8 62.8 0.00 0.00 0.00 72 1011.7
20260503205905 11 266 32.2 66.0 0.00 0.00 0.00 73 1011.8
20260503205406 11 266 33.8 64.4 0.00 0.00 0.00 73 1011.7
20260503204905 11 263 35.4 61.2 0.00 0.00 0.00 73 1011.7
20260503203905 11 257 27.4 61.2 0.00 0.00 0.00 72 1011.7
20260503202906 11 263 27.4 45.1 0.00 0.00 0.00 73 1011.8
20260503201905 11 252 22.5 41.8 0.00 0.00 0.00 74 1011.9
20260503201405 11 243 22.5 48.3 0.00 0.00 0.00 74 1011.9
20260503200905 10 251 22.5 41.8 0.00 0.03 0.00 75 1011.9
20260503200406 10 239 25.7 56.3 0.00 0.03 0.00 75 1011.9
20260503195406 10 243 19.3 38.6 0.00 0.03 0.00 75 1012.1
20260503194906 10 249 19.3 45.1 0.00 0.03 0.00 75 1012.2
20260503194405 10 252 29.0 61.2 0.00 0.03 0.00 73 1012.2
20260503193905 11 252 24.1 41.8 0.00 0.03 0.00 74 1012.3
20260503193405 11 250 22.5 46.7 0.00 0.03 0.00 75 1012.4
20260503192906 11 242 20.9 48.3 0.00 0.03 0.00 73 1012.5
20260503192405 11 252 22.5 51.5 0.00 0.03 0.00 72 1012.6
20260503191906 11 246 20.9 41.8 0.00 0.03 0.00 71 1012.8
20260503191406 11 247 22.5 48.3 0.00 0.03 0.00 71 1012.8
20260503190905 12 228 24.1 45.1 0.00 0.03 0.00 70 1013.0
20260503190406 12 237 25.7 46.7 0.00 0.03 0.00 72 1013.1
20260503184906 11 243 25.7 57.9 0.00 0.03 0.00 72 1013.3
20260503183906 11 249 29.0 51.5 0.00 0.03 0.00 69 1013.3
20260503183405 12 227 22.5 45.1 0.00 0.03 0.00 69 1013.5
20260503182905 12 250 25.7 45.1 0.00 0.03 0.00 68 1013.4
20260503182406 12 253 17.7 51.5 0.00 0.03 0.00 69 1013.6
20260503181906 12 255 25.7 48.3 0.00 0.03 0.00 67 1013.6
20260503181405 12 253 27.4 48.3 0.00 0.03 0.00 66 1013.7
20260503180406 12 252 25.7 56.3 0.00 0.03 0.00 67 1013.9
20260503175906 12 238 22.5 41.8 0.00 0.03 0.00 68 1013.9
20260503174906 11 258 25.7 45.1 0.00 0.03 0.00 69 1013.9
20260503173905 11 231 19.3 33.8 0.00 0.03 0.00 73 1014.0
20260503173405 10 229 16.1 35.4 0.00 0.03 0.00 75 1014.1
20260503172906 10 223 20.9 35.4 0.00 0.03 0.00 75 1014.2
20260503172405 10 224 19.3 38.6 0.00 0.03 0.00 74 1014.3
20260503171906 10 209 14.5 27.4 0.00 0.03 0.00 76 1014.4
20260503171405 10 225 16.1 29.0 0.00 0.03 0.00 77 1014.5
20260503170905 10 237 17.7 35.4 0.00 0.03 0.00 77 1014.6
20260503170405 10 239 11.3 29.0 0.00 0.03 0.00 79 1014.6
20260503150906 8 237 11.3 25.7 0.00 0.03 0.00 82 1016.1
20260503150405 8 212 16.1 29.0 0.00 0.03 0.00 80 1016.2
20260503130905 8 275 14.5 27.4 0.00 0.03 0.00 71 1016.2
20260503110406 5 255 11.3 27.4 0.00 0.03 0.00 91 1015.8
20260503090405 2 258 4.8 14.5 0.00 0.03 0.00 88 1016.1
20260503081405 1 270 4.8 9.7 0.00 0.03 0.00 83 1016.3
20260503080905 1 270 4.8 9.7 0.00 0.03 0.00 83 1016.4
20260503080405 1 270 4.8 9.7 0.00 0.03 0.00 83 1016.3
20260503071905 1 292 4.8 9.7 0.00 0.03 0.00 77 1016.5
20260503071405 1 294 6.4 9.7 0.00 0.03 0.00 76 1016.5
20260503070905 1 296 8.0 9.7 0.00 0.03 0.00 75 1016.5
20260503070405 1 299 4.8 8.0 0.00 0.03 0.00 74 1016.5
20260503054905 1 281 8.0 14.5 0.00 0.03 0.00 75 1016.8
20260503054405 1 282 4.8 9.7 0.00 0.03 0.00 76 1017.0
20260503052904 1 284 8.0 9.7 0.00 0.03 0.00 78 1016.8
20260503052405 1 287 6.4 9.7 0.00 0.03 0.00 79 1016.8
20260503051905 1 288 4.8 9.7 0.00 0.03 0.00 80 1016.9
20260503050905 2 288 8.0 9.7 0.00 0.03 0.00 81 1017.0
20260503050405 2 288 6.4 11.3 0.00 0.03 0.00 82 1016.9
20260503045912 2 288 6.4 14.5 0.00 0.03 0.00 82 1017.0
20260503045412 2 294 8.0 11.3 0.00 0.03 0.00 83 1016.9
20260503044912 2 283 8.0 14.5 0.00 0.03 0.00 85 1017.1
20260503044411 2 283 8.0 14.5 0.00 0.03 0.00 86 1017.2
20260503043912 2 273 4.8 14.5 0.00 0.03 0.00 86 1017.2
20260503042912 2 269 3.2 8.0 0.00 0.03 0.00 86 1017.1
20260503042411 2 270 3.2 8.0 0.00 0.03 0.00 86 1017.1
20260503041912 2 270 4.8 9.7 0.00 0.03 0.00 86 1017.2
20260503041412 2 270 3.2 14.5 0.00 0.03 0.00 86 1017.3
20260503040412 2 270 3.2 8.0 0.00 0.03 0.00 86 1017.2
20260503035912 2 269 3.2 9.7 0.00 0.03 0.03 86 1017.2
20260503035412 2 270 4.8 9.7 0.00 0.03 0.03 86 1017.3
20260503034913 2 273 4.8 8.0 0.00 0.03 0.03 85 1017.4
20260503034412 2 274 3.2 9.7 0.00 0.03 0.03 85 1017.5
20260503033912 2 276 1.6 8.0 0.00 0.03 0.03 85 1017.4
20260503033412 2 276 1.6 8.0 0.00 0.03 0.03 84 1017.4
20260503032912 2 276 3.2 4.8 0.00 0.03 0.03 83 1017.4
20260503032412 2 276 3.2 8.0 0.00 0.03 0.03 83 1017.5
20260503031912 2 276 3.2 9.7 0.00 0.03 0.03 82 1017.6
20260503030912 2 276 3.2 8.0 0.00 0.03 0.03 82 1017.5
20260503030412 2 276 1.6 4.8 0.00 0.03 0.03 81 1017.5
20260503025912 2 276 3.2 8.0 0.00 0.03 0.03 80 1017.6
20260503025412 2 276 3.2 9.7 0.00 0.03 0.03 79 1017.7
20260503024412 3 280 1.6 4.8 0.00 0.03 0.03 78 1017.7
20260503023912 3 280 0.0 0.0 0.00 0.03 0.03 77 1017.7
20260503022911 3 280 0.0 0.0 0.00 0.03 0.03 77 1017.9
20260503022412 3 280 0.0 0.0 0.00 0.03 0.03 76 1017.9
20260503021911 3 280 0.0 0.0 0.00 0.03 0.03 76 1017.8
20260503021412 3 280 0.0 0.0 0.00 0.03 0.03 75 1017.8
20260503020912 3 280 0.0 0.0 0.00 0.03 0.03 76 1017.8
20260503020412 3 280 0.0 1.6 0.00 0.03 0.03 75 1017.8
20260503015912 3 280 1.6 4.8 0.00 0.03 0.03 74 1017.8
20260503014912 4 280 3.2 8.0 0.00 0.03 0.03 75 1017.7
20260503013912 4 280 1.6 9.7 0.00 0.03 0.03 75 1017.7
20260503013412 4 280 3.2 8.0 0.00 0.03 0.03 75 1017.7
20260503012912 4 280 3.2 8.0 0.00 0.03 0.03 75 1017.8
20260503012412 4 280 3.2 8.0 0.00 0.03 0.03 74 1017.8
20260503011912 5 280 3.2 9.7 0.00 0.03 0.03 75 1017.8
20260503011411 5 285 4.8 9.7 0.00 0.03 0.03 74 1017.7
20260503010911 5 286 3.2 8.0 0.00 0.03 0.03 74 1017.6
20260503010411 5 286 3.2 8.0 0.00 0.03 0.03 74 1017.6
20260503005912 5 286 3.2 8.0 0.00 0.03 0.03 74 1017.6
20260503005412 5 287 3.2 8.0 0.00 0.03 0.03 74 1017.7
20260503004911 5 287 3.2 8.0 0.00 0.03 0.03 73 1017.5
20260503004412 5 287 4.8 11.3 0.00 0.03 0.03 71 1017.5
20260503003411 5 281 6.4 11.3 0.00 0.03 0.03 71 1017.3
20260503002412 5 298 4.8 9.7 0.00 0.03 0.03 71 1017.4
20260503001411 5 275 8.0 16.1 0.00 0.03 0.03 68 1017.4
20260503000412 5 297 9.7 20.9 0.00 0.03 0.03 68 1017.5
20260502235912 5 311 11.3 24.1 0.00 0.03 0.03 68 1017.4
20260502235412 5 311 11.3 20.9 0.00 0.03 0.03 69 1017.5
20260502234912 5 335 11.3 20.9 0.00 0.03 0.03 69 1017.4
20260502234412 5 320 12.9 24.1 0.00 0.03 0.03 69 1017.3
20260502233912 5 320 11.3 27.4 0.00 0.03 0.03 69 1017.3
20260502233412 6 303 14.5 25.7 0.00 0.03 0.03 70 1017.3
20260502232912 6 335 20.9 27.4 0.00 0.03 0.03 70 1017.4
20260502232411 6 305 8.0 19.3 0.00 0.03 0.03 72 1017.4
20260502231911 6 298 8.0 16.1 0.00 0.03 0.03 72 1017.2
20260502231412 6 278 8.0 16.1 0.00 0.03 0.03 71 1017.2
20260502230912 6 283 8.0 16.1 0.00 0.03 0.03 72 1017.3
20260502230412 6 301 8.0 16.1 0.00 0.03 0.03 72 1017.2
20260502225912 6 287 8.0 16.1 0.00 0.03 0.03 73 1017.2
20260502224912 6 287 6.4 16.1 0.00 0.03 0.03 72 1017.2